GW3831 Weather Reports


time (UTC)temp
F
wind
direction
speed
knots
gust
knots
rain 1hr
in
rain 24hr
in
rain mn
in
humidity
%
barometer
mb
20260505215104 50 344 0.0 2.6 0.00 0.04 0.04 82 1009.8
20260505214604 50 337 1.7 2.6 0.00 0.04 0.04 82 1009.8
20260505214106 51 358 0.9 2.6 0.00 0.04 0.04 82 1009.8
20260505213604 51 301 0.9 2.6 0.00 0.04 0.04 82 1010.1
20260505213104 51 162 0.9 2.6 0.00 0.04 0.04 82 1009.8
20260505212604 51 281 1.7 2.6 0.00 0.04 0.04 82 1010.2
20260505212104 51 301 0.0 5.2 0.00 0.04 0.04 82 1010.2
20260505211605 51 35 0.0 2.6 0.00 0.04 0.04 82 1009.9
20260505211105 51 278 0.9 5.2 0.00 0.04 0.04 81 1010.1
20260505210604 51 62 0.9 2.6 0.00 0.04 0.04 81 1010.1
20260505205604 51 254 1.7 4.3 0.00 0.04 0.04 81 1009.8
20260505205104 52 265 0.9 4.3 0.00 0.04 0.04 80 1009.8
20260505204604 52 281 0.9 6.1 0.00 0.04 0.04 81 1010.2
20260505204104 52 300 2.6 6.1 0.00 0.04 0.04 80 1009.8
20260505203604 52 300 0.9 4.3 0.00 0.04 0.04 80 1009.8
20260505202604 52 306 0.9 5.2 0.00 0.04 0.04 80 1009.8
20260505202104 52 297 3.5 5.2 0.00 0.04 0.04 80 1009.8
20260505201604 52 212 1.7 5.2 0.00 0.04 0.04 80 1009.8
20260505201104 52 348 1.7 5.2 0.00 0.04 0.04 80 1009.6
20260505200606 53 177 0.0 2.6 0.00 0.04 0.04 80 1009.7
20260505200105 53 310 1.7 2.6 0.00 0.04 0.04 79 1009.6
20260505195104 53 299 0.9 2.6 0.00 0.04 0.04 79 1009.8
20260505194605 53 58 1.7 4.3 0.00 0.04 0.04 80 1009.5
20260505194105 53 303 1.7 4.3 0.00 0.04 0.04 81 1009.5
20260505193604 53 270 0.9 2.6 0.00 0.04 0.04 81 1009.7
20260505193104 54 270 0.0 1.7 0.00 0.04 0.04 80 1009.5
20260505192604 54 270 0.0 2.6 0.00 0.04 0.04 80 1009.6
20260505191604 54 237 0.0 1.7 0.00 0.04 0.04 80 1009.5
20260505191104 54 332 1.7 2.6 0.00 0.04 0.04 80 1009.4
20260505190604 54 278 0.9 2.6 0.00 0.04 0.04 80 1009.1
20260505190105 54 195 0.9 2.6 0.00 0.04 0.04 80 1009.1
20260505185104 55 11 0.0 2.6 0.00 0.04 0.04 81 1009.1
20260505184604 55 305 2.6 2.6 0.00 0.04 0.04 81 1009.1
20260505184104 55 318 1.7 2.6 0.00 0.04 0.04 83 1009.1
20260505183606 55 229 0.9 2.6 0.00 0.04 0.04 84 1009.1
20260505183106 55 305 0.9 1.7 0.00 0.04 0.04 86 1009.1
20260505182604 55 290 0.0 0.9 0.00 0.04 0.04 85 1009.1
20260505182104 55 329 0.9 0.9 0.00 0.04 0.04 85 1009.5
20260505181604 55 231 0.9 2.6 0.00 0.04 0.04 85 1009.4
20260505180604 55 259 0.0 1.7 0.00 0.04 0.04 84 1009.1
20260505180104 56 210 0.0 1.7 0.00 0.04 0.04 83 1009.1
20260505175604 56 108 0.0 2.6 0.00 0.04 0.04 83 1009.4
20260505175104 56 77 0.0 2.6 0.00 0.04 0.04 83 1009.1
20260505174604 56 21 0.0 2.6 0.00 0.04 0.04 82 1009.1
20260505174104 56 98 0.0 2.6 0.00 0.04 0.04 81 1009.1
20260505173605 56 316 0.9 1.7 0.00 0.04 0.04 81 1009.1
20260505173104 56 278 0.0 2.6 0.00 0.04 0.04 81 1009.1
20260505172104 56 274 0.9 1.7 0.00 0.04 0.04 82 1009.1
20260505171604 56 341 0.9 1.7 0.00 0.04 0.04 82 1009.1
20260505171104 56 287 0.9 2.6 0.00 0.04 0.04 81 1009.1
20260505170605 56 289 0.0 4.3 0.00 0.04 0.04 81 1009.1
20260505170105 57 84 2.6 4.3 0.00 0.04 0.04 81 1009.1
20260505165604 57 43 0.0 1.7 0.00 0.04 0.04 80 1009.1
20260505165104 57 37 0.9 2.6 0.00 0.04 0.04 80 1009.2
20260505164104 57 286 0.0 0.9 0.00 0.04 0.04 80 1009.1
20260505162604 57 285 1.7 4.3 0.00 0.04 0.04 80 1009.1
20260505162103 57 269 0.0 2.6 0.00 0.04 0.04 80 1009.5
20260505161604 57 300 1.7 2.6 0.00 0.04 0.04 80 1009.5
20260505161104 57 241 0.9 4.3 0.00 0.04 0.04 80 1009.6
20260505160604 57 286 1.7 4.3 0.00 0.04 0.04 79 1009.8
20260505160104 58 292 0.9 1.7 0.00 0.04 0.04 79 1009.5
20260505153105 57 230 0.9 2.6 0.00 0.04 0.04 80 1009.7
20260505152604 57 279 0.9 4.3 0.00 0.04 0.04 81 1009.8
20260505152106 56 309 1.7 2.6 0.00 0.04 0.04 81 1009.6
20260505151105 56 253 0.9 6.1 0.00 0.04 0.04 82 1009.8
20260505150604 56 232 0.9 2.6 0.00 0.04 0.04 82 1009.8
20260505150104 56 286 1.7 4.3 0.00 0.04 0.04 82 1009.8
20260505140603 55 242 0.0 2.6 0.00 0.04 0.04 85 1010.2
20260505130105 56 252 1.7 2.6 0.00 0.04 0.04 84 1010.7
20260505124104 55 273 0.9 4.3 0.00 0.04 0.04 85 1010.6
20260505123605 55 269 0.9 4.3 0.00 0.04 0.04 85 1010.6
20260505122604 54 276 0.0 2.6 0.00 0.04 0.04 87 1010.6
20260505122104 54 232 0.9 2.6 0.00 0.04 0.04 87 1010.7
20260505121604 54 270 0.9 2.6 0.00 0.04 0.04 87 1010.8
20260505121105 54 251 0.9 2.6 0.00 0.04 0.04 87 1010.8
20260505120604 54 299 0.0 2.6 0.00 0.04 0.04 87 1010.8
20260505120104 54 297 0.9 2.6 0.00 0.04 0.04 87 1010.8
20260505115604 53 343 0.0 4.3 0.00 0.04 0.04 88 1010.8
20260505115104 53 282 0.9 1.7 0.00 0.04 0.04 89 1010.6
20260505114604 53 276 0.0 0.9 0.00 0.04 0.04 89 1010.9
20260505114105 53 53 0.0 4.3 0.00 0.04 0.04 88 1011.1
20260505113606 53 171 1.7 2.6 0.00 0.04 0.04 88 1010.8
20260505113105 53 84 0.9 4.3 0.00 0.04 0.04 88 1010.9
20260505112606 53 221 1.7 4.3 0.00 0.04 0.04 89 1011.2
20260505111604 53 195 0.9 4.3 0.00 0.04 0.04 89 1010.9
20260505111104 53 303 2.6 2.6 0.00 0.04 0.04 89 1011.1
20260505110604 53 298 0.9 2.6 0.00 0.04 0.04 89 1011.2
20260505110104 53 280 0.0 1.7 0.00 0.04 0.04 89 1011.2
20260505101605 53 206 0.9 2.6 0.00 0.04 0.04 90 1011.2
20260505101104 53 268 2.6 2.6 0.00 0.04 0.04 91 1011.2
20260505100604 53 264 0.9 2.6 0.00 0.04 0.04 91 1011.2
20260505100104 52 254 0.9 4.3 0.00 0.04 0.04 91 1011.2
20260505095604 52 273 1.7 5.2 0.00 0.04 0.04 91 1011.1
20260505094604 52 286 1.7 4.3 0.00 0.04 0.04 92 1011.1
20260505093105 51 253 1.7 4.3 0.00 0.04 0.04 93 1011.2
20260505092605 51 308 1.7 5.2 0.00 0.04 0.04 93 1011.2
20260505092105 51 269 0.9 2.6 0.00 0.04 0.04 93 1011.2
20260505091605 51 303 0.9 7.0 0.00 0.04 0.04 93 1011.2
20260505091105 51 96 1.7 4.3 0.00 0.04 0.04 93 1011.2
20260505090105 51 330 0.9 5.2 0.00 0.04 0.04 93 1011.2
20260505085604 51 294 1.7 5.2 0.00 0.04 0.04 93 1011.2
20260505085104 51 49 0.9 5.2 0.00 0.04 0.04 93 1011.2
20260505084104 51 281 1.7 2.6 0.00 0.04 0.04 93 1011.2
20260505083605 51 273 1.7 5.2 0.00 0.04 0.04 94 1011.2
20260505083104 51 222 1.7 5.2 0.00 0.04 0.04 94 1011.2
20260505082104 51 292 2.6 4.3 0.00 0.04 0.04 95 1011.2
20260505081604 51 268 0.9 4.3 0.00 0.04 0.04 95 1011.2
20260505081104 51 310 2.6 4.3 0.00 0.04 0.04 95 1011.2
20260505080105 51 23 1.7 2.6 0.00 0.04 0.04 95 1011.2
20260505075604 51 212 0.9 4.3 0.00 0.04 0.04 95 1011.2
20260505075104 51 280 1.7 4.3 0.00 0.04 0.04 95 1011.2
20260505074604 51 155 1.7 4.3 0.00 0.04 0.04 95 1011.2
20260505073605 51 301 0.9 5.2 0.00 0.04 0.04 96 1011.2
20260505072605 51 290 0.9 5.2 0.00 0.04 0.04 96 1011.2
20260505072104 51 311 1.7 7.8 0.00 0.04 0.04 96 1011.1
20260505071604 51 33 1.7 7.0 0.00 0.04 0.04 96 1011.2
20260505070604 51 328 2.6 7.8 0.00 0.04 0.04 96 1011.2
20260505070106 51 36 2.6 7.0 0.00 0.04 0.04 96 1010.8
20260505065104 51 23 1.7 5.2 0.00 0.04 0.04 96 1011.1
20260505064604 51 328 0.0 2.6 0.00 0.04 0.04 96 1011.2
20260505064105 51 289 0.9 5.2 0.00 0.04 0.04 96 1011.2
20260505063605 51 164 1.7 5.2 0.00 0.04 0.04 96 1011.2
20260505063104 51 321 2.6 5.2 0.00 0.04 0.04 96 1011.2
20260505062604 51 329 1.7 5.2 0.00 0.04 0.04 96 1011.4
20260505062104 51 293 1.7 4.3 0.00 0.04 0.04 96 1011.3
20260505061606 51 317 1.7 2.6 0.00 0.04 0.04 96 1011.2
20260505061104 51 296 1.7 4.3 0.00 0.04 0.04 96 1011.2
20260505060605 51 154 2.6 5.2 0.00 0.04 0.04 96 1011.2
20260505060104 51 31 1.7 4.3 0.00 0.04 0.04 96 1011.2
20260505055604 51 321 1.7 4.3 0.00 0.04 0.04 96 1011.4
20260505055105 51 326 2.6 5.2 0.00 0.04 0.04 96 1011.2
20260505054104 51 230 2.6 4.3 0.00 0.04 0.04 96 1011.2
20260505053604 51 288 1.7 4.3 0.00 0.04 0.04 96 1011.2
20260505053104 51 203 1.7 4.3 0.00 0.04 0.04 96 1011.2
20260505052604 51 230 1.7 4.3 0.00 0.04 0.04 96 1011.2
20260505052104 51 254 1.7 4.3 0.00 0.04 0.04 96 1011.3
20260505051605 51 39 1.7 4.3 0.00 0.04 0.04 96 1011.2
20260505051105 51 60 1.7 4.3 0.00 0.04 0.04 96 1011.5
20260505050603 50 265 1.7 6.1 0.00 0.04 0.04 96 1011.2
20260505041605 51 257 0.9 1.7 0.00 0.04 0.04 96 1011.2
20260505041104 51 251 0.0 1.7 0.00 0.04 0.04 96 1011.2
20260505040604 51 243 0.0 5.2 0.00 0.04 0.04 96 1011.2
20260505040104 51 276 0.9 5.2 0.00 0.04 0.04 96 1011.3
20260505035605 51 238 0.9 5.2 0.00 0.04 0.04 96 1011.2
20260505035104 51 318 2.6 2.6 0.00 0.04 0.04 96 1011.2
20260505034604 51 303 0.9 4.3 0.00 0.04 0.04 96 1011.2
20260505034104 51 274 0.9 2.6 0.00 0.04 0.04 96 1011.4
20260505033604 51 188 0.9 2.6 0.00 0.04 0.04 96 1011.2
20260505033104 51 249 0.9 2.6 0.00 0.04 0.04 96 1011.5
20260505032604 51 291 0.0 1.7 0.00 0.04 0.04 96 1011.4
20260505032104 51 319 1.7 4.3 0.00 0.04 0.04 96 1011.5
20260505031604 51 338 0.9 5.2 0.00 0.04 0.04 96 1011.2
20260505031105 51 313 0.9 2.6 0.00 0.04 0.04 96 1011.4
20260505030604 51 331 0.9 6.1 0.00 0.04 0.04 96 1011.3
20260505030105 52 314 1.7 4.3 0.00 0.04 0.04 96 1011.5
20260505025605 52 298 2.6 4.3 0.00 0.04 0.04 96 1011.5
20260505025104 52 273 1.7 4.3 0.00 0.04 0.04 96 1011.5
20260505024604 52 67 0.9 4.3 0.00 0.04 0.04 96 1011.5
20260505024104 52 170 1.7 2.6 0.00 0.04 0.04 96 1011.5
20260505023604 52 10 0.9 2.6 0.00 0.04 0.04 96 1011.5
20260505023104 52 262 1.7 2.6 0.00 0.04 0.04 96 1011.8
20260505022604 52 324 1.7 4.3 0.00 0.04 0.04 96 1011.2
20260505022106 52 69 0.9 1.7 0.00 0.04 0.04 96 1011.5
20260505021604 52 89 0.9 2.6 0.00 0.04 0.04 96 1011.5
20260505021104 52 49 1.7 2.6 0.00 0.04 0.04 96 1011.2
20260505020105 53 315 1.7 4.3 0.00 0.04 0.04 96 1011.5
20260505015606 53 310 1.7 5.2 0.00 0.04 0.04 96 1011.5
20260505015104 53 333 1.7 1.7 0.00 0.04 0.04 96 1011.4
20260505014606 53 83 0.0 1.7 0.00 0.04 0.04 96 1011.3
20260505014104 53 106 0.9 2.6 0.00 0.04 0.04 96 1011.5
20260505013604 53 305 0.9 2.6 0.00 0.04 0.04 96 1011.2
20260505013105 53 252 0.9 2.6 0.00 0.04 0.04 96 1011.3
20260505012604 53 184 0.0 1.7 0.00 0.04 0.04 96 1011.5
20260505012104 53 106 0.9 4.3 0.00 0.04 0.04 96 1011.5
20260505011604 53 311 0.9 2.6 0.00 0.04 0.04 96 1011.5
20260505011104 53 254 0.9 2.6 0.00 0.04 0.04 96 1011.8
20260505010604 53 227 0.9 2.6 0.00 0.04 0.04 96 1011.8
20260505010104 53 133 0.9 2.6 0.00 0.04 0.04 96 1011.8
20260505005604 53 247 1.7 2.6 0.00 0.04 0.04 96 1011.9
20260505004104 54 294 1.7 4.3 0.00 0.04 0.04 96 1011.9
20260505003604 54 289 0.9 4.3 0.00 0.04 0.04 95 1011.9
20260505003104 54 321 1.7 5.2 0.00 0.04 0.04 95 1011.9
20260505002604 54 2 1.7 5.2 0.00 0.04 0.04 95 1011.9
20260505002104 54 308 2.6 5.2 0.00 0.04 0.04 95 1011.8
20260505001104 54 297 1.7 2.6 0.01 0.04 0.04 95 1011.9
20260505000604 54 11 1.7 5.2 0.01 0.05 0.04 95 1011.9
20260504235604 55 181 2.6 5.2 0.01 0.05 0.04 95 1012.1
20260504235104 55 293 1.7 5.2 0.02 0.05 0.04 95 1012.2
20260504234604 55 247 1.7 6.1 0.04 0.05 0.04 95 1012.2
20260504233604 55 187 0.9 2.6 0.04 0.06 0.04 95 1011.9
20260504233104 55 221 1.7 5.2 0.04 0.08 0.04 95 1012.5
20260504232604 55 303 2.6 5.2 0.04 0.15 0.04 95 1012.4
20260504232104 55 144 0.9 2.6 0.04 0.27 0.04 95 1012.2
20260504230605 55 316 0.9 1.7 0.03 0.36 0.03 94 1012.2
20260504230104 56 260 0.9 1.7 0.03 0.36 0.03 93 1012.4
20260504225105 56 242 0.9 2.6 0.02 0.35 0.02 92 1012.5
20260504224604 56 260 0.9 2.6 0.00 0.33 0.00 91 1012.2
20260504224104 56 339 0.0 2.6 0.00 0.33 0.00 91 1012.5
20260504223604 56 250 0.0 1.7 0.00 0.33 0.00 91 1012.5
20260504223104 56 282 0.9 2.6 0.00 0.33 0.00 91 1012.5
20260504222604 56 228 0.9 5.2 0.00 0.33 0.00 91 1012.5
20260504222104 56 281 0.9 5.2 0.00 0.33 0.00 91 1012.8
20260504221604 56 162 0.0 7.8 0.00 0.33 0.00 91 1012.6
20260504221105 57 309 1.7 7.8 0.00 0.33 0.00 90 1012.6
20260504220604 57 301 0.9 2.6 0.00 0.33 0.00 90 1012.8
20260504215604 58 271 0.9 4.3 0.00 0.33 0.00 89 1012.8